Location: Usti nad Labem
(50.6670°N, 14.0330°E)
Time: 22:01:47
(UTC+01:00)

Envisat - Pass Details

Date: 07 December 2020
Orbit: 764 x 766 km, 98.1° (Epoch: 15 January)

Event Time Altitude Azimuth Distance (km) Brightness Sun altitude
Rises 17:12:53 0° 174° (S) 3,221 6.5 -11.0°
Reaches altitude 10° 17:15:12 10° 178° (S) 2,299 5.7 -11.3°
Maximum altitude 17:20:13 61° 259° (WSW) 868 3.6 -12.0°
Drops below altitude 10° 17:25:17 10° 340° (NNW) 2,316 5.5 -12.8°
Sets 17:27:38 0° 344° (NNW) 3,247 6.2 -13.1°
